Regional Weather Roundup
Issued by NWS

Home | Current Version | Previous Version | Text Only | Print | Product List | Glossary On
Versions: 1 2 3 4 5 6 7 8 9 10 11 12 13 14 15 16 17 18 19 20 21 22 23 24 25 26 27 28 29 30 31 32 33 34 35 36 37 38 39 40 41 42 43 44 45 46 47 48 49 50
000
ASUS43 KMPX 240101
RWRMN
WEATHER ROUNDUP FOR MINNESOTA
NATIONAL WEATHER SERVICE TWIN CITIES/CHANHASSEN MN
800 PM CDT FRI JUN 23 2017


NOTE: "FAIR" INDICATES FEW OR NO CLOUDS BELOW 12,000 FEET WITH NO
SIGNIFICANT WEATHER AND/OR OBSTRUCTIONS TO VISIBILITY. N/A MEANS
CURRENT SKY AND/OR WEATHER CONDITIONS ARE NOT AVAILABLE.

MNZ060>063-068>070-240200-
   Twin Cities Metro

CITY           SKY/WX    TMP DP  RH WIND       PRES   REMARKS
TWIN CITIES    MOCLDY    67  49  52 NW18G28   29.86R
ST PAUL        CLOUDY    67  51  56 NW20G26   29.86R
CRYSTAL        PTCLDY    67  48  50 NW16G23   29.85R
BLAINE         MOCLDY    68  52  56 NW14G24   29.86S
LAKEVILLE      MOCLDY    64  52  63 NW13G21   29.87R
EDEN PRAIRIE   CLOUDY    69  51  52 NW13G23   29.86R
SOUTH ST PAUL  CLOUDY    67  49  52 W15G22    29.86R
LAKE ELMO      CLOUDY    64  52  63 NW7       29.86S
$$
MNZ001>005-007-008-013>017-022>024-027-028-240200-
   Northwest Minnesota

CITY           SKY/WX    TMP DP  RH WIND       PRES   REMARKS
BEMIDJI        MOSUNNY   56  47  70 NW16      29.90S
HALLOCK        PTSUNNY   61  43  51 NW17G24   29.92R
ROSEAU           N/A     57  48  72 NW13G21   29.89S
WARROAD        CLOUDY    55  48  76 NW13G18   29.89R
CROOKSTON      PTSUNNY   61  41  48 NW22G29   29.94R
FOSSTON        CLOUDY    57  46  67 NW10      29.93R
DETROIT LAKES  SUNNY     61  39  44 NW14G26   29.94R
MOORHEAD       PTSUNNY   63  39  42 NW17G24   29.95R
PARK RAPIDS    PTSUNNY   62  45  53 NW16      29.90R
MAHNOMEN       FAIR      60  42  51 NW16      29.92R
$$
MNZ006-009>011-018-025>026-240200-
   North Central Minnesota

CITY           SKY/WX    TMP DP  RH WIND       PRES   REMARKS
BAUDETTE       CLOUDY    55  50  83 W14G23    29.86R
FLAG ISLAND    CLOUDY    55  50  82 NW21G26   29.85R
INTL FALLS     CLOUDY    58  51  78 W10       29.81R
WASKISH        CLOUDY    55  48  76 W17G25    29.88R
BIG FORK       CLOUDY    57  48  72 W5        29.85R
LONGVILLE      CLOUDY    59  48  67 NW10G18   29.89R
GRAND RAPIDS   CLOUDY    58  50  75 NW18      29.87R
CRANE LAKE     CLOUDY    57  54  88 W8        29.80R
ORR            CLOUDY    57  52  82 W8        29.79R
COOK           MOCLDY    57  54  88 W14       29.82R
WALKER         CLOUDY    57  47  70 NW10G17   29.90R
$$
MNZ012-019>021-037-240200-
   Northeast Minnesota

CITY           SKY/WX    TMP DP  RH WIND       PRES   REMARKS
DULUTH         CLOUDY    60  53  77 NW14      29.80R
ELY            CLOUDY    61  52  72 W13G21    29.77R
HIBBING        CLOUDY    58  52  80 NW13G25   29.82R
EVELETH          N/A    N/A N/A N/A NW12G25     N/A
DULUTH HARBOR  CLOUDY    66  55  68 NW22      29.79R
TWO HARBORS    PTCLDY    66  54  63 NW8       29.75R
SILVER BAY     MOCLDY    63  52  67 NW5G21    29.75R
GRAND MARAIS     N/A     66  51  58 VRB6      29.70R
G MARAIS ARPRT MOCLDY    57  48  72 W6        29.74R
$$
MNZ029>031-032-039>041-046>048-054>057-064-240200-
   West Central Minnesota

CITY           SKY/WX    TMP DP  RH WIND       PRES   REMARKS
FERGUS FALLS   PTSUNNY   63  45  51 NW10      29.92R
WHEATON        MOSUNNY   64  37  36 NW14G24   29.98R
MORRIS         PTSUNNY   64  43  45 NW16      29.95R
ALEXANDRIA     PTSUNNY   61  45  55 NW13      29.95R
ELBOW LAKE     PTSUNNY   62  44  52 W12       29.95S
WADENA         PTSUNNY   61  45  55 NW13G22   29.92R
GLENWOOD       MOSUNNY   63  46  55 NW14G21   29.95R
APPLETON       MOSUNNY   64  39  39 NW12      29.95S
BENSON         MOSUNNY   64  45  48 N10       29.97R
ORTONVILLE     PTSUNNY   64  39  39 NW13G18   29.97R
MADISON        SUNNY     66  46  48 NW12      29.97R
WILLMAR        FAIR      64  48  55 NW15G25   29.96R
$$
MNZ033>034-036-042>043-049>051-058-059-240200-
   Central Minnesota

CITY           SKY/WX    TMP DP  RH WIND       PRES   REMARKS
ST CLOUD       PTCLDY    63  51  65 NW8       29.89R
SAUK CENTRE    CLOUDY    62  47  57 NW15G24   29.93R
PAYNESVILLE    PTSUNNY   63  47  54 W16       29.94R
AITKIN         MOCLDY    59  50  72 NW10G16   29.86R
PINE RIVER     CLOUDY    59  48  67 NW10G17   29.93R
BRAINERD       CLOUDY    61  48  62 NW16G23   29.89R
STAPLES        CLOUDY    61  45  55 NW14      29.91R
LONG PRAIRIE   CLOUDY    61  46  59 W12G17    29.93R
LITTLE FALLS   CLOUDY    63  46  55 NW12G23   29.91R
LITCHFIELD     CLOUDY    64  52  63 NW16G23   29.93R
BUFFALO        MOCLDY    65  50  56 W14G22    29.90R
MAPLE LAKE     MOCLDY    65  52  64 NW16      29.91R
HUTCHINSON     PTCLDY    64  51  63 W14G20    29.93R
$$
MNZ037-044-045-052-053-240200-
   East Central Minnesota

CITY           SKY/WX    TMP DP  RH WIND       PRES   REMARKS
PRINCETON      CLOUDY    66  50  55 NW15G25   29.88R
MORA           CLOUDY    63  52  67 N6        29.87R
CAMBRIDGE      CLOUDY    64  54  68 NW7       29.85R
RUSH CITY      CLOUDY    61  55  82 NW8       29.86R
MOOSE LAKE     MOCLDY    61  52  72 NW5       29.82R
HINCKLEY       CLOUDY    61  55  82 W7        29.84R
CLOQUET        PTCLDY    59  52  77 NW9       29.82R
MCGREGOR       MOCLDY    61  50  67 NW13G24   29.86R
$$
MNZ071>073-080-081-089-090-097-098-240200-
   Southwest Minnesota

CITY           SKY/WX    TMP DP  RH WIND       PRES   REMARKS
MONTEVIDEO     MOSUNNY   64  48  55 N12G17    29.96S
GRANITE FALLS  MOSUNNY   67  48  51 NW15G21   29.98R
CANBY          MOSUNNY   65  46  50 W9        29.99S
MARSHALL       MOSUNNY   65  47  52 NW15      29.98R
REDWOOD FALLS  PTCLDY    65  48  54 NW12G23   29.95R
OLIVIA         SUNNY     64  46  52 NW14G22   29.94R
PIPESTONE      MOSUNNY   64  45  48 N10G18    30.00S
WINDOM         PTCLDY    64  46  52 W17G23    29.98R
WORTHINGTON    MOCLDY    63  48  58 NW17G23   30.00R
JACKSON        PTCLDY    63  46  55 NW15G21   29.98S
TRACY          MOSUNNY   64  50  59 NW10G20   29.99R
SLAYTON        PTSUNNY   62  45  53 NW17      30.00R
$$
MNZ065>067-074>077-082>085-091>093-240200-
   South Central Minnesota

CITY           SKY/WX    TMP DP  RH WIND       PRES   REMARKS
MANKATO        PTCLDY    65  50  58 NW20G28   29.92R
NEW ULM        PTCLDY    64  48  55 NW17G24   29.93S
ST JAMES       MOCLDY    64  48  55 W17G24    29.96R
FAIRMONT       CLOUDY    64  51  62 NW15      29.96R
GLENCOE        PTCLDY    66  54  65 NW14G24   29.91R
FARIBAULT      PTCLDY    66  54  63 W12G17    29.89R
OWATONNA       MOCLDY    66  54  63 NW15      29.90R
WASECA         PTCLDY    63  50  63 W22       29.92R
ALBERT LEA     CLEAR     66  52  59 NW8G16    29.92R
$$
MNZ078>079-086>088-094>096-240200-
   Southeast Minnesota

CITY           SKY/WX    TMP DP  RH WIND       PRES   REMARKS
ROCHESTER      MOCLDY    64  54  69 W14       29.89R
RED WING       LGT RAIN  64  52  63 N8G21     29.84R
STANTON        MOCLDY    67  53  61 W15       29.86R
DODGE CENTER   PTCLDY    64  54  68 W13G18    29.89R
WINONA         MOCLDY    70  55  60 NW9       29.83S
AUSTIN         PTCLDY    66  52  59 NW18      29.89S
PRESTON        CLOUDY    64  52  67 NW13G18   29.88R
$$
ABBREVIATIONS USED IN REMARKS
   TC - TEMPERATURES IN CELSIUS
  WCI - WIND CHILL INDEX
   HX - HEAT INDEX
  VSB - VISIBILITY
$$




USA.gov is the U.S. government's official web portal to all federal, state and local government web resources and services.